Flag for Austria Weather for the Past 2 Weeks in Feldkirchen in Kärnten, Carinthia, Austria

Now
45 °F

Heavy rain. Low clouds.


Feels Like: N/A
Forecast: 42 / 55 °F
Wind: N/A

Location: Klagenfurt-Flughafen

Current Time: May 1, 2016 at 12:21:21 PM

Latest Report: May 1, 2016 at 11:00 AM


Visibility: 2 mi

Pressure: 29.99 "Hg (28.08 "Hg at 541m altitude)

Humidity: 96%

Dew Point: 44 °F

Location of Feldkirchen in KärntenLocation

Historic Weather in Feldkirchen in Kärnten — Graph

°F

Feldkirchen in Kärnten Temperature Yesterday

Maximum temperature yesterday: 62 °F (at 5:00 PM)
Minimum temperature yesterday: 33 °F (at 1:00 AM)
Average temperature yesterday: 52 °F

High & Low Weather Summary for the Past Weeks

 TemperatureHumidityPressure
High71 °F (Apr 16, 4:00 PM)100% (Apr 30, 9:00 AM)30.40 "Hg (Apr 30, 9:00 AM)
Low33 °F (Apr 27, 3:00 PM)20% (Apr 25, 5:00 PM)29.56 "Hg (Apr 23, 5:00 PM)
Average52 °F64%29.90 "Hg
* Reported Apr 16 11:00 AM — May 1 11:00 AM, Feldkirchen in Kärnten, Weather by CustomWeather, © 2016

Note: Actual official high and low records may vary slightly from our data, if they occured in-between our weather recording intervals... More about our weather records

Advertising

Feldkirchen in Kärnten Weather History for the Previous 24 Hours

Scroll right to see more
 ConditionsComfort  
Time TempWeatherWind HumidityBarometerVisibility
11:00 AM
Sun, May 1
45 °FHeavy rain. Low clouds.N/A96%29.99 "Hg2 mi
10:00 AM45 °FHeavy rain. Low clouds.N/A95%30.00 "Hg2 mi
9:00 AM45 °FHeavy rain. Overcast.N/A95%29.99 "Hg2 mi
8:00 AM44 °FLight rain. Overcast.N/A92%29.98 "Hg4 mi
7:00 AM45 °FOvercast.N/A87%29.98 "Hg7 mi
6:00 AM44 °FOvercast.N/A87%29.98 "Hg9 mi
2:00 AM49 °FOvercast.N/A79%29.99 "Hg9 mi
12:00 AM50 °FOvercast.N/A74%29.98 "Hg11 mi
11:00 PM
Sat, Apr 30
52 °FOvercast.N/A69%29.99 "Hg17 mi
10:00 PM54 °FOvercast.N/A62%29.98 "Hg22 mi
9:00 PM55 °FOvercast.N/A56%29.97 "Hg25 mi
8:00 PM59 °FPartly sunny.N/A43%29.95 "Hg31 mi
7:00 PM62 °FPartly sunny.N/A33%29.94 "Hg28 mi
6:00 PM61 °FPartly sunny.N/A44%29.95 "Hg28 mi
5:00 PM62 °FScattered clouds.N/A33%29.96 "Hg25 mi
4:00 PM62 °FScattered clouds.N/A41%29.98 "Hg25 mi
3:00 PM60 °FPassing clouds.N/A45%30.01 "Hg22 mi
2:00 PM57 °FPassing clouds.N/A48%30.04 "Hg16 mi
1:00 PM54 °FPassing clouds.N/A57%30.07 "Hg22 mi
Weather by CustomWeather, © 2016

See weather overviewHow to use our weather pages